Location: Girdwood
(60.9430°N, 149.1660°W)
Time: 14:21:07
(UTC-08:00)

Amateur Radio Satellites - All Passes

Search period start: 01 July 2016 13:51
Search period end: 02 July 2016 13:51
Location: Girdwood, 60.9430°N, 149.1660°W

Satellite Date Start Highest point End Downlink Frequencies (MHz)
Time Altitude Azimuth
50 SAT 01 Jul 13:58:12 14:01:56 69° 106° (ESE) 14:05:36 437.505
TISAT 1 01 Jul 13:58:44 14:01:08 15° 84° (E) 14:03:32 437.305
UWE-3 01 Jul 14:00:21 14:02:41 14° 319° (NW) 14:05:03 435.000/436.395/437.385
DANDE 01 Jul 14:04:44 14:07:51 13° 342° (NNW) 14:10:41 436.750
VELOX 1 01 Jul 14:07:59 14:12:24 72° 106° (ESE) 14:16:48 145.980
O/OREOS (USA 219) 01 Jul 14:09:16 14:11:48 15° 259° (W) 14:14:21 437.305
AIST 2 01 Jul 14:12:19 14:15:31 22° 237° (WSW) 14:18:43 435.215
DELFI C3 01 Jul 14:12:34 14:15:03 16° 313° (NW) 14:17:33 145.870
NANOSAT C BR1 01 Jul 14:13:58 14:15:51 13° 278° (W) 14:17:45 145.865
HUMSAT D 01 Jul 14:14:34 14:18:08 25° 307° (NW) 14:21:41 437.325/437.525
QB50P1 01 Jul 14:19:39 14:20:59 11° 280° (W) 14:22:19 145.935-145.965
POPSAT HIP 1 01 Jul 14:23:36 14:24:35 11° 280° (W) 14:25:35 437.405
SPROUT 01 Jul 14:25:39 14:29:55 58° 102° (ESE) 14:34:09 437.525
M-CUBED/EXP-1 PRIME 01 Jul 14:28:57 14:30:44 13° 326° (NW) 14:32:35 437.505
UKube-1 01 Jul 14:30:46 14:35:07 76° 106° (ESE) 14:39:26 .
YUBILEINY 01 Jul 14:33:16 14:42:03 88° 287° (WNW) 14:50:56 435.215
Cosmos 2491 01 Jul 14:38:19 14:45:38 32° 284° (WNW) 14:52:56 435.465 / 435.565
RS-15 01 Jul 14:39:01 14:50:45 80° 141° (SE) 15:03:03 29.354- 29.394
Oscar 19 01 Jul 14:45:19 14:50:19 50° 260° (W) 14:55:20 437.125/150
AISAT 01 Jul 14:49:24 14:53:44 57° 295° (WNW) 14:58:03 437.250
BEESAT 01 Jul 14:50:56 14:53:06 13° 80° (E) 14:55:16 436.000
ITUPSAT 1 01 Jul 14:54:09 14:56:31 13° 81° (E) 14:58:51 437.325
NOAA 18 01 Jul 14:55:47 14:57:24 11° 14° (NNE) 14:59:01 137.9125
DX 1 01 Jul 14:57:15 15:01:34 62° 294° (WNW) 15:05:51 434.975-435.025
ESTCUBE 1 01 Jul 14:59:33 15:03:44 38° 301° (WNW) 15:07:54 437.505/2401.250
CUTE-I 01 Jul 15:07:32 15:08:21 10° 16° (NNE) 15:09:10 437.470
ITAMSAT 1 01 Jul 15:14:48 15:20:01 77° 68° (ENE) 15:25:18 435.822/435.867
JAS-2 01 Jul 15:15:12 15:20:58 25° 274° (W) 15:26:16 435.910
HORYU 2 01 Jul 15:18:57 15:21:38 16° 41° (NE) 15:24:19 437.375
HO-68 01 Jul 15:19:40 15:24:13 18° 353° (N) 15:28:47 435.675
NOAA 15 01 Jul 15:22:45 15:24:43 12° 24° (NNE) 15:26:42 137.62
AO-7 01 Jul 15:26:23 15:34:42 72° 57° (ENE) 15:43:04 29.400- 29.500
Cosmos 2504 01 Jul 15:26:51 15:35:19 77° 98° (E) 15:44:13 435.465 / 435.565
CUBEBUG 1 01 Jul 15:27:35 15:31:23 31° 304° (NW) 15:35:11 437.445
Gurwin Techsat 1B 01 Jul 15:29:41 15:34:49 48° 261° (W) 15:40:00 435.225
50 SAT 01 Jul 15:32:22 15:35:18 22° 305° (NW) 15:38:13 437.505
TISAT 1 01 Jul 15:33:21 15:37:34 72° 105° (ESE) 15:41:48 437.305
VELOX 1 01 Jul 15:44:52 15:48:35 27° 307° (NW) 15:52:17 145.980
DANDE 01 Jul 15:51:27 15:53:43 12° 10° (N) 15:55:50 436.750
SPROUT 01 Jul 16:01:55 16:05:42 31° 303° (WNW) 16:09:29 437.525
SWISSCUBE 01 Jul 16:02:26 16:06:58 40° 97° (E) 16:11:30 437.505
UKube-1 01 Jul 16:07:16 16:10:50 26° 308° (NW) 16:14:24 .
Cubesat XI-IV 01 Jul 16:10:45 16:13:53 16° 32° (NNE) 16:17:02 437.490
KKS-1 01 Jul 16:21:15 16:22:59 12° 81° (E) 16:24:44 437.445
AISAT 01 Jul 16:26:43 16:29:28 17° 317° (NW) 16:32:13 437.250
BEESAT 01 Jul 16:27:16 16:32:01 55° 102° (ESE) 16:36:44 436.000
Oscar 19 01 Jul 16:28:50 16:30:55 12° 282° (WNW) 16:33:01 437.125/150
SO-50 01 Jul 16:30:29 16:34:14 22° 122° (ESE) 16:37:57 436.795
ITUPSAT 1 01 Jul 16:30:39 16:35:26 57° 103° (ESE) 16:40:11 437.325
YUBILEINY 01 Jul 16:32:09 16:40:07 37° 311° (NW) 16:48:11 435.215
NOAA 18 01 Jul 16:32:17 16:36:18 21° 38° (NE) 16:40:23 137.9125
DX 1 01 Jul 16:34:14 16:37:04 17° 316° (NW) 16:39:54 434.975-435.025
MOZHAYETS 4 01 Jul 16:35:58 16:38:54 16° 83° (E) 16:41:48
ESTCUBE 1 01 Jul 16:37:33 16:39:31 13° 323° (NW) 16:41:28 437.505/2401.250
CUSAT 1 01 Jul 16:40:51 16:42:54 13° 34° (NE) 16:44:45 437.405
CUTE-I 01 Jul 16:42:46 16:46:40 21° 40° (NE) 16:50:35 437.470
STARS 01 Jul 16:44:19 16:45:26 11° 80° (E) 16:46:34 437.465
GONETS M04 01 Jul 16:46:16 16:49:55 13° 56° (NE) 16:53:33
RS-15 01 Jul 16:51:50 17:03:51 75° 352° (N) 17:16:17 29.354- 29.394
HORYU 2 01 Jul 16:53:02 16:57:22 51° 63° (ENE) 17:01:44 437.375
ITAMSAT 1 01 Jul 16:55:36 17:00:04 28° 269° (W) 17:04:34 435.822/435.867
NOAA 15 01 Jul 16:58:38 17:03:03 28° 48° (NE) 17:07:28 137.62
BRITE-PL 01 Jul 17:01:46 17:05:11 21° 51° (NE) 17:08:27 437.365/2234.400
HO-68 01 Jul 17:04:41 17:09:43 21° 19° (NNE) 17:14:45 435.675
CUBEBUG 1 01 Jul 17:05:55 17:06:32 10° 326° (NW) 17:07:10 437.445
TISAT 1 01 Jul 17:09:27 17:12:57 26° 306° (NW) 17:16:26 437.305
Gurwin Techsat 1B 01 Jul 17:14:09 17:16:10 12° 283° (WNW) 17:18:11 435.225
GOMX 1 01 Jul 17:18:12 17:20:48 16° 46° (NE) 17:23:21 467.674
AO-7 01 Jul 17:20:05 17:28:02 46° 261° (W) 17:36:05 29.400- 29.500
Cosmos 2504 01 Jul 17:21:24 17:29:32 44° 305° (NW) 17:38:00 435.465 / 435.565
DANDE 01 Jul 17:34:40 17:39:10 22° 39° (NE) 17:42:49 436.750
AIST 1 01 Jul 17:34:50 17:38:41 33° 91° (E) 17:42:33
SPROUT 01 Jul 17:40:05 17:40:31 10° 325° (NW) 17:40:58 437.525
SWISSCUBE 01 Jul 17:40:17 17:44:56 49° 299° (WNW) 17:49:33 437.505
Cubesat XI-IV 01 Jul 17:47:48 17:52:47 40° 55° (NE) 17:57:48 437.490
LilacSat-2 01 Jul 17:50:19 17:53:33 27° 57° (ENE) 17:56:51 437.200
KKS-1 01 Jul 17:56:11 18:00:35 55° 102° (ESE) 18:04:58 437.445
DOVE 4 01 Jul 18:00:13 18:02:59 18° 48° (NE) 18:05:46 437.250
Cosmos 2499 01 Jul 18:02:57 18:09:19 23° 68° (ENE) 18:15:47 435.465 / 435.565
BEESAT 01 Jul 18:05:18 18:09:43 37° 304° (WNW) 18:14:08 436.000
ITUPSAT 1 01 Jul 18:08:45 18:13:10 36° 304° (NW) 18:17:33 437.325
SO-50 01 Jul 18:09:15 18:14:07 68° 143° (SE) 18:18:54 436.795
NOAA 18 01 Jul 18:10:43 18:16:06 59° 61° (ENE) 18:21:33 137.9125
MOZHAYETS 4 01 Jul 18:12:14 18:16:56 72° 104° (ESE) 18:21:34
CUBESAT XI-V 01 Jul 18:12:59 18:16:14 19° 85° (E) 18:19:28 437.345
STARS 01 Jul 18:18:34 18:22:53 50° 101° (ESE) 18:27:11 437.465
CUTE-I 01 Jul 18:20:36 18:25:53 60° 63° (ENE) 18:31:12 437.470
CUSAT 1 01 Jul 18:22:14 18:26:25 49° 64° (ENE) 18:29:37 437.405
CANX-2 01 Jul 18:23:53 18:25:59 13° 41° (NE) 18:28:06 2200.000
HORYU 2 01 Jul 18:30:04 18:34:09 34° 264° (W) 18:38:16 437.375
CINEMA 3 01 Jul 18:30:23 18:32:39 14° 42° (NE) 18:34:58 145.822/145.860
YUBILEINY 01 Jul 18:34:05 18:40:13 20° 343° (NNW) 18:46:24 435.215
GONETS M04 01 Jul 18:36:21 18:44:13 41° 83° (E) 18:52:07
NOAA 15 01 Jul 18:37:03 18:42:22 89° 64° (ENE) 18:47:41 137.62
BRITE-PL 01 Jul 18:38:32 18:43:15 83° 71° (ENE) 18:47:38 437.365/2234.400
SEEDS 01 Jul 18:40:40 18:42:38 13° 41° (NE) 18:44:36 437.485
CUTE 1.7 + AOD 2 01 Jul 18:42:33 18:45:07 16° 44° (NE) 18:47:41 437.475
HO-68 01 Jul 18:49:19 18:55:48 39° 44° (NE) 19:02:20 435.675
GOMX 1 01 Jul 18:53:58 18:58:15 61° 67° (ENE) 19:02:25 467.674
RS-15 01 Jul 19:05:12 19:17:26 84° 24° (NNE) 19:29:54 29.354- 29.394
M-CUBED/EXP-1 PRIME 01 Jul 19:08:27 19:10:05 13° 34° (NE) 19:11:47 437.505
AAUSAT CUBESAT 2 01 Jul 19:09:12 19:11:17 14° 43° (NE) 19:13:23 437.432
AIST 1 01 Jul 19:12:03 19:16:13 47° 293° (WNW) 19:20:23
DANDE 01 Jul 19:17:36 19:23:18 71° 68° (ENE) 19:27:27 436.750
SWISSCUBE 01 Jul 19:18:53 19:21:50 16° 321° (NW) 19:24:46 437.505
AO-7 01 Jul 19:18:57 19:23:18 15° 287° (WNW) 19:27:41 29.400- 29.500
Cosmos 2504 01 Jul 19:19:10 19:25:44 23° 335° (NNW) 19:32:25 435.465 / 435.565
LilacSat-2 01 Jul 19:23:54 19:27:40 56° 258° (WSW) 19:31:30 437.200
STRAND 1 01 Jul 19:25:08 19:25:31 10° 75° (ENE) 19:25:55 437.568
Cubesat XI-IV 01 Jul 19:27:28 19:32:46 59° 257° (WSW) 19:38:08 437.490
KKS-1 01 Jul 19:33:01 19:37:02 34° 304° (WNW) 19:41:04 437.445
DOVE 4 01 Jul 19:35:58 19:40:08 72° 69° (ENE) 19:44:17 437.250
CUBEBUG 2 01 Jul 19:38:51 19:41:53 19° 47° (NE) 19:45:00 437.445
BEESAT 01 Jul 19:44:05 19:46:24 14° 326° (NW) 19:48:43 436.000
COMPASS 1 01 Jul 19:45:12 19:48:35 24° 53° (NE) 19:51:59 437.405
ITUPSAT 1 01 Jul 19:47:37 19:49:53 13° 326° (NNW) 19:52:09 437.325
CUBESAT XI-V 01 Jul 19:49:42 19:54:23 83° 107° (ESE) 19:59:00 437.345
MOZHAYETS 4 01 Jul 19:49:48 19:53:49 29° 306° (NW) 19:57:48
ZACube-1 01 Jul 19:49:52 19:52:21 15° 42° (NE) 19:54:53 437.345
SO-50 01 Jul 19:49:56 19:54:47 62° 346° (NNW) 19:59:31 436.795
NOAA 18 01 Jul 19:51:55 19:57:04 40° 263° (W) 20:02:16 137.9125
Cosmos 2499 01 Jul 19:52:21 20:00:51 64° 94° (E) 20:09:39 435.465 / 435.565
Oscar 11 01 Jul 19:52:24 19:55:03 16° 44° (NE) 19:57:42 145.826/435.025
STARS 01 Jul 19:55:09 19:59:11 36° 302° (WNW) 20:03:13 437.465
CANX-2 01 Jul 19:56:51 20:00:57 45° 63° (ENE) 20:05:05 2200.000
AUBIESAT-1 01 Jul 19:58:51 20:01:33 22° 44° (NE) 20:04:22 437.475
CUTE-I 01 Jul 20:01:16 20:06:15 37° 265° (W) 20:11:16 437.470
FUNcube-1 01 Jul 20:04:51 20:07:43 17° 45° (NE) 20:10:37 145.935
CUSAT 1 01 Jul 20:04:52 20:08:04 23° 273° (W) 20:10:44 437.405
CINEMA 3 01 Jul 20:04:55 20:08:57 50° 64° (ENE) 20:13:08 145.822/145.860
SEEDS 01 Jul 20:13:23 20:17:26 43° 63° (ENE) 20:21:30 437.485
CUTE 1.7 + AOD 2 01 Jul 20:15:59 20:20:12 56° 66° (ENE) 20:24:26 437.475
UWE-3 01 Jul 20:17:44 20:21:17 25° 53° (NE) 20:24:57 435.000/436.395/437.385
NOAA 15 01 Jul 20:18:38 20:22:51 24° 272° (W) 20:27:06 137.62
BRITE-PL 01 Jul 20:18:44 20:22:17 21° 271° (W) 20:25:42 437.365/2234.400
DELFI C3 01 Jul 20:25:09 20:27:19 14° 45° (NE) 20:29:29 145.870
GONETS M04 01 Jul 20:31:51 20:40:34 77° 288° (WNW) 20:49:20
HUMSAT D 01 Jul 20:31:51 20:33:30 12° 39° (NE) 20:35:09 437.325/437.525
GOMX 1 01 Jul 20:33:05 20:36:44 26° 268° (W) 20:40:19 467.674
YUBILEINY 01 Jul 20:35:13 20:41:20 20° 16° (NNE) 20:47:27 435.215
HO-68 01 Jul 20:35:52 20:43:04 86° 249° (WSW) 20:50:21 435.675
M-CUBED/EXP-1 PRIME 01 Jul 20:40:45 20:43:58 47° 56° (NE) 20:47:20 437.505
AAUSAT CUBESAT 2 01 Jul 20:41:54 20:45:56 47° 64° (ENE) 20:50:00 437.432
AIST 1 01 Jul 20:52:57 20:54:56 13° 316° (NW) 20:56:56
DANDE 01 Jul 21:01:06 21:05:25 25° 278° (W) 21:08:53 436.750
STRAND 1 01 Jul 21:01:15 21:06:10 42° 98° (E) 21:11:03 437.568
LilacSat-2 01 Jul 21:02:07 21:02:53 10° 279° (W) 21:03:39 437.200
Cubesat XI-IV 01 Jul 21:10:55 21:14:02 15° 280° (W) 21:17:09 437.490
KKS-1 01 Jul 21:11:00 21:12:31 12° 325° (NW) 21:14:03 437.445
CUBEBUG 2 01 Jul 21:13:37 21:17:53 72° 69° (ENE) 21:22:19 437.445
PRISM 01 Jul 21:14:36 21:16:20 12° 83° (E) 21:18:04 437.425
DOVE 4 01 Jul 21:15:05 21:18:21 22° 270° (W) 21:21:37 437.250
Cosmos 2504 01 Jul 21:17:24 21:23:13 19° 7° (N) 21:29:05 435.465 / 435.565
RS-15 01 Jul 21:17:53 21:29:43 60° 233° (SW) 21:41:38 29.354- 29.394
COMPASS 1 01 Jul 21:19:33 21:23:47 80° 253° (WSW) 21:28:04 437.405
ESTCUBE 1 01 Jul 21:22:40 21:24:07 11° 34° (NE) 21:25:33 437.505/2401.250
ZACube-1 01 Jul 21:23:36 21:27:48 51° 64° (ENE) 21:32:06 437.345
Oscar 11 01 Jul 21:26:09 21:30:25 56° 66° (ENE) 21:34:43 145.826/435.025
CUBESAT XI-V 01 Jul 21:27:33 21:31:22 26° 308° (NW) 21:35:10 437.345
MOZHAYETS 4 01 Jul 21:28:46 21:29:42 11° 329° (NNW) 21:30:39
SO-50 01 Jul 21:31:00 21:35:48 59° 10° (N) 21:40:28 436.795
AUBIESAT-1 01 Jul 21:32:25 21:35:46 72° 246° (WSW) 21:39:18 437.475
STARS 01 Jul 21:32:50 21:34:31 12° 324° (NW) 21:36:12 437.465
CANX-2 01 Jul 21:32:55 21:36:56 37° 264° (W) 21:40:59 2200.000
FUNcube-1 01 Jul 21:38:59 21:43:14 63° 67° (ENE) 21:47:39 145.935
CINEMA 3 01 Jul 21:42:37 21:46:21 31° 266° (W) 21:50:13 145.822/145.860
Cosmos 2499 01 Jul 21:45:55 21:54:24 53° 300° (WNW) 22:03:08 435.465 / 435.565
CUBEBUG 1 01 Jul 21:48:09 21:49:37 12° 37° (NE) 21:51:05 437.445
SEEDS 01 Jul 21:49:14 21:53:14 38° 263° (W) 21:57:16 437.485
CUTE 1.7 + AOD 2 01 Jul 21:52:31 21:56:19 30° 267° (W) 22:00:09 437.475
UWE-3 01 Jul 21:53:05 21:57:23 77° 255° (WSW) 22:01:51 435.000/436.395/437.385
DELFI C3 01 Jul 21:57:29 22:01:26 53° 66° (ENE) 22:05:24 145.870
AO-85 01 Jul 22:01:37 22:05:45 23° 121° (ESE) 22:09:43 145.980
HUMSAT D 01 Jul 22:04:11 22:08:08 38° 60° (ENE) 22:12:08 437.325/437.525
VELOX 1 01 Jul 22:05:13 22:07:31 14° 40° (NE) 22:09:49 145.980
M-CUBED/EXP-1 PRIME 01 Jul 22:15:58 22:18:47 25° 258° (WSW) 22:21:43 437.505
AAUSAT CUBESAT 2 01 Jul 22:17:44 22:21:35 34° 265° (W) 22:25:28 437.432
SPROUT 01 Jul 22:21:37 22:22:34 11° 36° (NE) 22:23:30 437.525
HO-68 01 Jul 22:25:44 22:31:49 29° 272° (W) 22:37:57 435.675
UKube-1 01 Jul 22:25:52 22:28:10 14° 40° (NE) 22:30:26 .
GONETS M04 01 Jul 22:31:23 22:39:00 32° 316° (NW) 22:46:40
YUBILEINY 01 Jul 22:33:30 22:41:30 36° 47° (NE) 22:49:28 435.215
STRAND 1 01 Jul 22:40:30 22:45:32 51° 299° (WNW) 22:50:31 437.568
AISAT 01 Jul 22:44:57 22:48:23 23° 50° (NE) 22:51:49 437.250
PRISM 01 Jul 22:48:26 22:52:32 62° 104° (ESE) 22:56:35 437.425
CUBEBUG 2 01 Jul 22:51:34 22:55:01 23° 271° (W) 22:58:35 437.445
DX 1 01 Jul 22:51:37 22:54:54 21° 48° (NE) 22:58:11 434.975-435.025
ESTCUBE 1 01 Jul 22:55:43 22:59:47 33° 56° (NE) 23:03:51 437.505/2401.250
COMPASS 1 01 Jul 22:57:22 23:00:04 16° 275° (W) 23:02:47 437.405
ZACube-1 01 Jul 23:00:23 23:04:19 33° 266° (W) 23:08:20 437.345
Oscar 11 01 Jul 23:02:58 23:06:50 30° 267° (W) 23:10:45 145.826/435.025
TIGRISAT 01 Jul 23:04:10 23:07:02 16° 83° (E) 23:09:56 435.000
AUBIESAT-1 01 Jul 23:09:48 23:11:02 12° 268° (W) 23:12:17 437.475
UNISAT 6 01 Jul 23:10:24 23:13:39 18° 86° (E) 23:16:53 437.425
SO-50 01 Jul 23:11:44 23:16:33 79° 213° (SSW) 23:21:12 436.795
50 SAT 01 Jul 23:12:33 23:15:44 27° 57° (ENE) 23:18:56 437.505
Cosmos 2504 01 Jul 23:12:53 23:20:22 28° 38° (NE) 23:27:44 435.465 / 435.565
FUNcube-1 01 Jul 23:16:11 23:19:52 27° 269° (W) 23:23:40 145.935
CUBEBUG 1 01 Jul 23:20:55 23:24:52 36° 59° (ENE) 23:28:51 437.445
TISAT 1 01 Jul 23:27:01 23:28:37 12° 39° (NE) 23:30:14 437.305
RS-15 01 Jul 23:30:45 23:39:42 25° 261° (W) 23:48:40 29.354- 29.394
UWE-3 01 Jul 23:31:57 23:34:41 16° 277° (W) 23:37:27 435.000/436.395/437.385
DELFI C3 01 Jul 23:33:02 23:36:33 28° 267° (W) 23:40:06 145.870
VELOX 1 01 Jul 23:38:53 23:43:05 45° 62° (ENE) 23:47:19 145.980
HUMSAT D 01 Jul 23:39:42 23:43:46 44° 262° (W) 23:47:54 437.325/437.525
AO-85 01 Jul 23:40:23 23:45:39 67° 142° (SE) 23:50:36 145.980
Cosmos 2499 01 Jul 23:42:56 23:49:57 25° 328° (NNW) 23:57:02 435.465 / 435.565
ANTELSAT 01 Jul 23:49:35 23:53:48 33° 94° (E) 23:58:02 437.575/2403.000
SPROUT 01 Jul 23:53:37 23:57:25 33° 58° (ENE) 00:01:16 437.525
UKube-1 01 Jul 23:59:12 00:03:20 47° 62° (ENE) 00:07:30 .
Cosmos 2491 02 Jul 00:00:39 00:07:25 26° 72° (ENE) 00:14:10 435.465 / 435.565
SWISSCUBE 02 Jul 00:07:25 00:09:27 13° 32° (NNE) 00:11:29 437.505
NANOSAT C BR1 02 Jul 00:10:28 00:12:22 13° 82° (E) 00:14:17 145.865
QB50P1 02 Jul 00:15:25 00:17:47 14° 84° (E) 00:20:08 145.935-145.965
POPSAT HIP 1 02 Jul 00:18:54 00:21:26 15° 84° (E) 00:23:56 437.405
AISAT 02 Jul 00:20:00 00:24:25 89° 63° (ENE) 00:28:50 437.250
STRAND 1 02 Jul 00:20:22 00:23:47 18° 322° (NW) 00:27:12 437.568
PRISM 02 Jul 00:24:07 00:27:38 28° 305° (NW) 00:31:07 437.425
DX 1 02 Jul 00:26:15 00:30:36 83° 69° (ENE) 00:34:59 434.975-435.025
DUCHIFAT 1 02 Jul 00:28:34 00:31:18 16° 86° (E) 00:34:02 145.980
YUBILEINY 02 Jul 00:30:45 00:39:40 85° 76° (ENE) 00:48:33 435.215
BEESAT 02 Jul 00:31:18 00:34:00 15° 37° (NE) 00:36:42 436.000
QB50P2 02 Jul 00:31:52 00:35:01 20° 88° (E) 00:38:10 145.880/145.840
ESTCUBE 1 02 Jul 00:31:57 00:36:27 59° 258° (WSW) 00:40:57 437.505/2401.250
GONETS M04 02 Jul 00:33:35 00:39:23 19° 348° (NNW) 00:45:11
POLYITAN 1 02 Jul 00:34:29 00:37:40 20° 88° (E) 00:40:51 437.675
ITUPSAT 1 02 Jul 00:34:49 00:37:37 16° 38° (NE) 00:40:26 437.325
TIGRISAT 02 Jul 00:39:56 00:44:34 70° 104° (ESE) 00:49:16 435.000
50 SAT 02 Jul 00:45:34 00:49:14 54° 258° (WSW) 00:52:56 437.505
UNISAT 6 02 Jul 00:46:25 00:51:05 80° 105° (ESE) 00:55:49 437.425
SO-50 02 Jul 00:52:36 00:56:31 26° 236° (SW) 01:00:21 436.795
CUBEBUG 1 02 Jul 00:56:54 01:01:07 49° 259° (W) 01:05:21 437.445
TISAT 1 02 Jul 00:59:26 01:03:20 39° 60° (ENE) 01:07:15 437.305
Cosmos 2504 02 Jul 01:06:54 01:15:48 63° 66° (ENE) 01:24:26 435.465 / 435.565
BUGSAT 1 02 Jul 01:08:09 01:11:01 18° 88° (E) 01:13:55 437.445
VELOX 1 02 Jul 01:15:33 01:19:41 38° 263° (W) 01:23:50 145.980
AO-85 02 Jul 01:21:08 01:26:20 63° 344° (NNW) 01:31:08 145.980
ANTELSAT 02 Jul 01:26:14 01:30:48 57° 295° (WNW) 01:35:24 437.575/2403.000
SPROUT 02 Jul 01:29:06 01:33:16 53° 259° (W) 01:37:29 437.525
UKube-1 02 Jul 01:35:32 01:39:33 36° 263° (W) 01:43:34 .
Cosmos 2499 02 Jul 01:41:13 01:47:01 18° 360° (N) 01:52:47 435.465 / 435.565
SWISSCUBE 02 Jul 01:41:46 01:46:04 34° 55° (NE) 01:50:24 437.505
NANOSAT C BR1 02 Jul 01:44:47 01:49:01 61° 103° (ESE) 01:53:14 145.865
QB50P1 02 Jul 01:50:06 01:54:23 69° 105° (ESE) 01:58:38 145.935-145.965
POPSAT HIP 1 02 Jul 01:53:42 01:58:00 73° 106° (ESE) 02:02:16 437.405
Cosmos 2491 02 Jul 01:54:14 02:02:56 74° 97° (E) 02:11:38 435.465 / 435.565
KKS-1 02 Jul 01:54:41 01:56:31 12° 36° (NE) 01:58:20 437.445
AISAT 02 Jul 01:58:20 02:01:31 19° 272° (W) 02:04:45 437.250
DUCHIFAT 1 02 Jul 02:03:26 02:07:42 80° 105° (ESE) 02:11:58 145.980
DX 1 02 Jul 02:04:05 02:07:22 21° 271° (W) 02:10:40 434.975-435.025
BEESAT 02 Jul 02:06:15 02:10:48 44° 59° (ENE) 02:15:22 436.000
QB50P2 02 Jul 02:07:06 02:11:24 86° 293° (WNW) 02:15:43 145.880/145.840
POLYITAN 1 02 Jul 02:09:45 02:14:03 85° 287° (WNW) 02:18:21 437.675
ITUPSAT 1 02 Jul 02:09:54 02:14:30 46° 60° (ENE) 02:19:07 437.325
JAS-2 02 Jul 02:11:47 02:17:12 38° 93° (E) 02:22:09 435.910
ESTCUBE 1 02 Jul 02:12:06 02:14:15 13° 279° (W) 02:16:23 437.505/2401.250
MOZHAYETS 4 02 Jul 02:12:43 02:15:19 15° 40° (NE) 02:17:53
STARS 02 Jul 02:16:29 02:17:53 11° 35° (NE) 02:19:18 437.465
TIGRISAT 02 Jul 02:17:00 02:21:00 30° 305° (NW) 02:25:04 435.000
UNISAT 6 02 Jul 02:23:35 02:27:27 27° 307° (NW) 02:31:21 437.425
YUBILEINY 02 Jul 02:28:00 02:35:44 36° 280° (W) 02:43:29 435.215
GONETS M04 02 Jul 02:34:11 02:40:27 21° 22° (NNE) 02:46:42
TISAT 1 02 Jul 02:35:03 02:39:01 41° 262° (W) 02:43:02 437.305
CUBEBUG 1 02 Jul 02:37:47 02:38:30 10° 281° (W) 02:39:12 437.445
BUGSAT 1 02 Jul 02:42:53 02:47:00 88° 287° (WNW) 02:51:09 437.445
Oscar 19 02 Jul 02:46:14 02:50:42 29° 92° (E) 02:55:10 437.125/150
PCSat 02 Jul 02:47:28 02:52:02 28° 117° (ESE) 02:56:38 145.827
O/OREOS (USA 219) 02 Jul 02:52:17 02:55:24 19° 104° (ESE) 02:58:30 437.305
Cosmos 2504 02 Jul 03:00:39 03:09:12 53° 271° (W) 03:17:30 435.465 / 435.565
AO-85 02 Jul 03:02:21 03:07:22 56° 8° (N) 03:11:58 145.980
ANTELSAT 02 Jul 03:03:44 03:06:45 17° 316° (NW) 03:09:47 437.575/2403.000
BEESAT 2 02 Jul 03:04:25 03:06:03 12° 116° (ESE) 03:07:42 435.950
SPROUT 02 Jul 03:09:02 03:10:14 11° 280° (W) 03:11:28 437.525
ITAMSAT 1 02 Jul 03:18:28 03:21:04 14° 79° (E) 03:23:38 435.822/435.867
AO-7 02 Jul 03:18:31 03:21:09 12° 68° (ENE) 03:23:46 29.400- 29.500
SWISSCUBE 02 Jul 03:18:55 03:23:42 62° 256° (WSW) 03:28:31 437.505
NANOSAT C BR1 02 Jul 03:20:52 03:24:33 29° 304° (NW) 03:28:16 145.865
QB50P1 02 Jul 03:26:18 03:29:53 27° 306° (NW) 03:33:28 145.935-145.965
KKS-1 02 Jul 03:27:58 03:32:03 37° 58° (ENE) 03:36:09 437.445
POPSAT HIP 1 02 Jul 03:29:57 03:33:28 26° 306° (NW) 03:37:01 437.405
AIST 1 02 Jul 03:30:40 03:34:28 30° 60° (ENE) 03:38:14
Gurwin Techsat 1B 02 Jul 03:35:03 03:39:55 35° 94° (E) 03:44:47 435.225
Cosmos 2499 02 Jul 03:37:03 03:44:05 25° 31° (NNE) 03:50:58 435.465 / 435.565
DUCHIFAT 1 02 Jul 03:39:38 03:43:02 24° 308° (NW) 03:46:26 145.980
QB50P2 02 Jul 03:43:31 03:46:45 21° 310° (NW) 03:49:59 145.880/145.840
BEESAT 02 Jul 03:44:02 03:48:38 45° 260° (W) 03:53:17 436.000
POLYITAN 1 02 Jul 03:46:10 03:49:22 21° 310° (NW) 03:52:36 437.675
MOZHAYETS 4 02 Jul 03:47:06 03:51:32 46° 62° (ENE) 03:56:00
ITUPSAT 1 02 Jul 03:47:49 03:52:26 44° 261° (W) 03:57:04 437.325
STARS 02 Jul 03:49:14 03:53:10 34° 57° (ENE) 03:57:08 437.465
CUBESAT XI-V 02 Jul 03:50:45 03:53:39 16° 42° (NE) 03:56:32 437.345
Cosmos 2491 02 Jul 03:52:11 04:00:30 45° 304° (NW) 04:08:51 435.465 / 435.565
BEESAT 3 02 Jul 03:53:31 03:57:08 35° 132° (SE) 04:00:45 437.485
TIGRISAT 02 Jul 03:55:26 03:56:29 11° 327° (NNW) 03:57:32 435.000
JAS-2 02 Jul 03:56:54 04:02:43 59° 298° (WNW) 04:07:58 435.910
BUGSAT 1 02 Jul 04:18:53 04:21:57 21° 309° (NW) 04:25:01 437.445
Oscar 19 02 Jul 04:25:23 04:30:31 71° 294° (WNW) 04:35:38 437.125/150
YUBILEINY 02 Jul 04:27:01 04:29:47 12° 307° (NW) 04:32:32 435.215
PCSat 02 Jul 04:29:28 04:34:55 84° 140° (SE) 04:40:23 145.827
O/OREOS (USA 219) 02 Jul 04:29:42 04:34:11 79° 125° (SE) 04:38:41 437.305
GONETS M04 02 Jul 04:32:10 04:40:19 41° 52° (NE) 04:48:27
BEESAT 2 02 Jul 04:39:13 04:43:04 47° 137° (SE) 04:46:55 435.950
AO-85 02 Jul 04:43:13 04:48:11 85° 209° (SSW) 04:52:40 145.980
Cosmos 2504 02 Jul 04:55:01 05:00:37 19° 297° (WNW) 05:06:09 435.465 / 435.565
ITAMSAT 1 02 Jul 04:56:36 05:01:47 54° 102° (ESE) 05:06:54 435.822/435.867
SWISSCUBE 02 Jul 04:59:48 05:02:30 15° 278° (W) 05:05:12 437.505
KKS-1 02 Jul 05:04:17 05:08:35 49° 259° (W) 05:12:55 437.445
AIST 1 02 Jul 05:08:10 05:12:21 55° 263° (W) 05:16:30
AO-7 02 Jul 05:09:03 05:16:47 39° 94° (E) 05:24:28 29.400- 29.500
STRAND 1 02 Jul 05:12:34 05:15:28 15° 34° (NE) 05:18:23 437.568
Gurwin Techsat 1B 02 Jul 05:14:58 05:20:15 63° 296° (WNW) 05:25:31 435.225
MOZHAYETS 4 02 Jul 05:24:24 05:28:49 41° 263° (W) 05:33:15
STARS 02 Jul 05:25:08 05:29:25 54° 258° (WSW) 05:33:45 437.465
CUBESAT XI-V 02 Jul 05:25:38 05:30:12 53° 64° (ENE) 05:34:46 437.345
BEESAT 02 Jul 05:26:44 05:27:42 11° 282° (WNW) 05:28:40 436.000
BEESAT 3 02 Jul 05:30:41 05:34:38 76° 333° (NNW) 05:38:37 437.485
Cosmos 2499 02 Jul 05:31:00 05:39:41 52° 60° (ENE) 05:47:57 435.465 / 435.565
ITUPSAT 1 02 Jul 05:31:13 05:31:35 10° 283° (WNW) 05:31:57 437.325
JAS-2 02 Jul 05:42:24 05:46:47 21° 324° (NW) 05:50:52 435.910
Cosmos 2491 02 Jul 05:53:38 06:00:09 22° 334° (NNW) 06:06:40 435.465 / 435.565
AIST 2 02 Jul 05:56:09 05:59:41 27° 127° (SE) 06:03:13 435.215
Oscar 19 02 Jul 06:05:16 06:09:11 23° 316° (NW) 06:13:06 437.125/150
O/OREOS (USA 219) 02 Jul 06:09:55 06:14:02 34° 329° (NNW) 06:18:08 437.305
HORYU 2 02 Jul 06:10:18 06:14:04 25° 91° (E) 06:17:47 437.375
PCSat 02 Jul 06:13:26 06:18:44 50° 344° (NNW) 06:24:04 145.827
BEESAT 2 02 Jul 06:16:54 06:20:53 64° 339° (NNW) 06:24:53 435.950
AO-85 02 Jul 06:24:07 06:28:09 28° 236° (SW) 06:31:54 145.980
NOAA 18 02 Jul 06:24:24 06:25:47 11° 76° (ENE) 06:27:09 137.9125
CUTE-I 02 Jul 06:29:08 06:30:42 11° 76° (ENE) 06:32:15 437.470
GONETS M04 02 Jul 06:29:22 06:38:08 83° 259° (W) 06:46:53
BRITE-PL 02 Jul 06:34:20 06:35:41 11° 80° (E) 06:37:02 437.365/2234.400
ITAMSAT 1 02 Jul 06:36:17 06:41:14 42° 303° (WNW) 06:46:08 435.822/435.867
PRISM 02 Jul 06:40:57 06:42:06 11° 37° (NE) 06:43:14 437.425
NOAA 15 02 Jul 06:42:32 06:45:52 17° 83° (E) 06:49:10 137.62
KKS-1 02 Jul 06:45:24 06:46:17 10° 281° (W) 06:47:10 437.445
AIST 1 02 Jul 06:47:50 06:49:02 11° 284° (WNW) 06:50:15
STRAND 1 02 Jul 06:48:44 06:53:32 40° 57° (ENE) 06:58:22 437.568
LilacSat-2 02 Jul 06:49:14 06:49:56 10° 81° (E) 06:50:40 437.200
Gurwin Techsat 1B 02 Jul 06:55:29 06:59:26 21° 318° (NW) 07:03:22 435.225
DANDE 02 Jul 06:55:54 07:00:02 16° 74° (ENE) 07:03:49 436.750
AO-7 02 Jul 07:02:00 07:10:26 83° 300° (WNW) 07:18:50 29.400- 29.500
CUBESAT XI-V 02 Jul 07:03:30 07:07:50 35° 265° (W) 07:12:08 437.345
STARS 02 Jul 07:05:17 07:06:49 12° 279° (W) 07:08:20 437.465
BEESAT 3 02 Jul 07:08:51 07:12:43 47° 357° (N) 07:16:34 437.485
Cosmos 2499 02 Jul 07:24:30 07:33:14 64° 266° (W) 07:41:31 435.465 / 435.565
JAS-2 02 Jul 07:27:40 07:29:52 12° 349° (N) 07:31:59 435.910
AIST 2 02 Jul 07:33:39 07:37:48 88° 158° (SSE) 07:42:00 435.215
CUSAT 1 02 Jul 07:34:05 07:39:56 32° 92° (E) 07:44:43 437.405
Cubesat XI-IV 02 Jul 07:34:12 07:38:51 28° 91° (E) 07:43:28 437.490
Oscar 19 02 Jul 07:46:33 07:46:55 10° 339° (NNW) 07:47:17 437.125/150
HORYU 2 02 Jul 07:46:34 07:51:05 72° 293° (WNW) 07:55:35 437.375
O/OREOS (USA 219) 02 Jul 07:51:14 07:54:40 21° 354° (N) 07:58:05 437.305
HO-68 02 Jul 07:54:05 07:56:50 12° 71° (ENE) 07:59:34 435.675
BEESAT 2 02 Jul 07:55:17 07:59:11 47° 2° (N) 08:03:05 435.950
Cosmos 2491 02 Jul 07:55:29 08:01:11 18° 8° (N) 08:06:53 435.465 / 435.565
PCSat 02 Jul 07:57:46 08:03:01 46° 9° (N) 08:08:17 145.827
NOAA 18 02 Jul 08:02:42 08:08:00 42° 98° (E) 08:13:16 137.9125
CUTE-I 02 Jul 08:07:03 08:12:13 44° 98° (E) 08:17:22 437.470
BRITE-PL 02 Jul 08:11:04 08:15:12 58° 102° (ESE) 08:19:20 437.365/2234.400
PRISM 02 Jul 08:12:39 08:16:25 35° 59° (ENE) 08:20:12 437.425
ITAMSAT 1 02 Jul 08:16:29 08:19:36 16° 326° (NW) 08:22:43 435.822/435.867
LilacSat-2 02 Jul 08:21:18 08:25:09 55° 101° (E) 08:28:59 437.200
NOAA 15 02 Jul 08:21:27 08:26:43 65° 105° (ESE) 08:31:56 137.62
GOMX 1 02 Jul 08:22:50 08:26:49 41° 98° (E) 08:30:55 467.674
GONETS M04 02 Jul 08:26:44 08:33:53 30° 285° (WNW) 08:41:03
STRAND 1 02 Jul 08:27:35 08:32:40 55° 258° (WSW) 08:37:46 437.568
DANDE 02 Jul 08:34:05 08:41:41 47° 94° (E) 08:48:00 436.750
Gurwin Techsat 1B 02 Jul 08:36:58 08:37:41 10° 342° (NNW) 08:38:23 435.225
TIGRISAT 02 Jul 08:38:30 08:40:39 13° 38° (NE) 08:42:52 435.000
UNISAT 6 02 Jul 08:44:40 08:47:09 15° 40° (NE) 08:49:40 437.425
BEESAT 3 02 Jul 08:46:54 08:50:51 63° 20° (NNE) 08:54:49 437.485
COMPASS 1 02 Jul 08:54:54 08:55:14 10° 78° (ENE) 08:55:35 437.405
AO-7 02 Jul 08:54:57 09:02:30 39° 324° (NW) 09:10:01 29.400- 29.500
DOVE 4 02 Jul 09:01:27 09:05:37 47° 99° (E) 09:09:58 437.250
CANX-2 02 Jul 09:07:36 09:11:03 23° 89° (E) 09:14:28 2200.000
JAS-2 02 Jul 09:09:56 09:12:36 13° 15° (NNE) 09:15:10 435.910
AIST 2 02 Jul 09:12:32 09:16:36 50° 352° (N) 09:20:42 435.215
Cubesat XI-IV 02 Jul 09:14:04 09:19:30 78° 293° (WNW) 09:24:53 437.490
CUSAT 1 02 Jul 09:15:00 09:21:50 76° 289° (WNW) 09:27:05 437.405
Cosmos 2499 02 Jul 09:18:22 09:24:46 23° 292° (WNW) 09:30:59 435.465 / 435.565
ANTELSAT 02 Jul 09:22:54 09:26:22 23° 49° (NE) 09:29:55 437.575/2403.000
SEEDS 02 Jul 09:22:54 09:26:12 21° 88° (E) 09:29:27 437.485
HORYU 2 02 Jul 09:23:46 09:27:03 20° 314° (NW) 09:30:18 437.375
CINEMA 3 02 Jul 09:25:44 09:29:49 32° 94° (E) 09:34:03 145.822/145.860
CUTE 1.7 + AOD 2 02 Jul 09:26:36 09:30:22 28° 92° (E) 09:34:03 437.475
O/OREOS (USA 219) 02 Jul 09:31:46 09:35:29 24° 19° (NNE) 09:39:11 437.305
UWE-3 02 Jul 09:33:20 09:35:43 14° 81° (E) 09:38:07 435.000/436.395/437.385
BEESAT 2 02 Jul 09:33:23 09:37:26 74° 27° (NNE) 09:41:26 435.950
NANOSAT C BR1 02 Jul 09:39:33 09:40:34 11° 36° (NE) 09:41:35 145.865
HO-68 02 Jul 09:39:57 09:46:45 42° 96° (E) 09:53:31 435.675
PCSat 02 Jul 09:41:34 09:47:03 78° 34° (NNE) 09:52:30 145.827
NOAA 18 02 Jul 09:43:28 09:48:53 56° 300° (WNW) 09:54:18 137.9125
QB50P1 02 Jul 09:44:30 09:46:02 12° 38° (NE) 09:47:32 145.935-145.965
CUTE-I 02 Jul 09:47:12 09:52:26 51° 300° (WNW) 09:57:38 437.470
PRISM 02 Jul 09:47:41 09:51:41 47° 259° (W) 09:55:42 437.425
POPSAT HIP 1 02 Jul 09:47:57 09:49:37 12° 39° (NE) 09:51:17 437.405
AAUSAT CUBESAT 2 02 Jul 09:49:37 09:52:57 22° 89° (E) 09:56:15 437.432
BRITE-PL 02 Jul 09:49:57 09:53:34 28° 304° (NW) 09:57:09 437.365/2234.400
Cosmos 2491 02 Jul 09:54:20 10:01:46 29° 40° (NE) 10:09:10 435.465 / 435.565
LilacSat-2 02 Jul 09:55:56 09:59:18 28° 302° (WNW) 10:02:39 437.200
DUCHIFAT 1 02 Jul 09:56:56 09:58:48 13° 40° (NE) 10:00:40 145.980
QB50P2 02 Jul 10:00:34 10:02:54 15° 42° (NE) 10:05:14 145.880/145.840
GOMX 1 02 Jul 10:01:06 10:05:01 39° 299° (WNW) 10:09:01 467.674
NOAA 15 02 Jul 10:01:32 10:06:19 36° 307° (NW) 10:11:04 137.62
POLYITAN 1 02 Jul 10:03:09 10:05:31 15° 43° (NE) 10:07:53 437.675
STRAND 1 02 Jul 10:10:23 10:13:02 14° 280° (W) 10:15:40 437.568
TIGRISAT 02 Jul 10:12:12 10:16:21 42° 60° (ENE) 10:20:38 435.000
DANDE 02 Jul 10:16:33 10:24:30 64° 294° (WNW) 10:30:59 436.750
UNISAT 6 02 Jul 10:18:42 10:22:58 48° 62° (ENE) 10:27:20 437.425
BEESAT 3 02 Jul 10:24:42 10:28:32 48° 223° (SW) 10:32:23 437.485
COMPASS 1 02 Jul 10:27:45 10:31:52 49° 100° (E) 10:35:57 437.405
CUBEBUG 2 02 Jul 10:30:25 10:34:48 42° 97° (E) 10:39:16 437.445
ISS 02 Jul 10:33:30 10:35:14 14° 164° (SSE) 10:36:57 145.825
BUGSAT 1 02 Jul 10:34:37 10:36:29 13° 42° (NE) 10:38:19 437.445
AUBIESAT-1 02 Jul 10:35:40 10:38:13 16° 96° (E) 10:40:52 437.475
ZACube-1 02 Jul 10:37:46 10:41:44 28° 92° (E) 10:45:43 437.345
Oscar 11 02 Jul 10:39:17 10:43:07 29° 93° (E) 10:46:54 145.826/435.025
DOVE 4 02 Jul 10:39:24 10:43:20 37° 300° (WNW) 10:47:26 437.250
CANX-2 02 Jul 10:43:04 10:47:24 74° 290° (WNW) 10:51:40 2200.000
AO-7 02 Jul 10:46:57 10:53:25 26° 350° (N) 10:59:52 29.400- 29.500
JAS-2 02 Jul 10:50:36 10:55:49 24° 40° (NE) 11:00:37 435.910
AIST 2 02 Jul 10:51:29 10:55:36 57° 15° (NNE) 10:59:43 435.215
FUNcube-1 02 Jul 10:52:49 10:56:59 34° 95° (E) 11:01:10 145.935
Cubesat XI-IV 02 Jul 10:54:38 10:58:59 25° 315° (NW) 11:03:18 437.490
SEEDS 02 Jul 10:58:08 11:02:25 78° 291° (WNW) 11:06:39 437.485
ANTELSAT 02 Jul 10:58:09 11:02:35 87° 71° (ENE) 11:07:10 437.575/2403.000
Oscar 19 02 Jul 10:59:22 11:01:26 12° 28° (NNE) 11:03:28 437.125/150
CUSAT 1 02 Jul 10:59:29 11:04:34 24° 309° (NW) 11:08:46 437.405
DELFI C3 02 Jul 11:00:05 11:03:18 22° 90° (E) 11:06:29 145.870
CUTE 1.7 + AOD 2 02 Jul 11:02:16 11:06:31 59° 293° (WNW) 11:10:44 437.475
CINEMA 3 02 Jul 11:02:49 11:07:14 56° 294° (WNW) 11:11:50 145.822/145.860
UWE-3 02 Jul 11:08:33 11:13:06 61° 102° (ESE) 11:17:44 435.000/436.395/437.385
O/OREOS (USA 219) 02 Jul 11:11:20 11:15:47 55° 43° (NE) 11:20:12 437.305
BEESAT 2 02 Jul 11:11:24 11:15:06 37° 227° (SW) 11:18:48 435.950
NANOSAT C BR1 02 Jul 11:11:28 11:15:15 34° 58° (ENE) 11:19:04 145.865
HUMSAT D 02 Jul 11:13:09 11:16:14 19° 87° (E) 11:19:19 437.325/437.525
QB50P1 02 Jul 11:16:55 11:20:49 38° 60° (ENE) 11:24:45 145.935-145.965
M-CUBED/EXP-1 PRIME 02 Jul 11:18:16 11:21:52 37° 107° (ESE) 11:25:42 437.505
POPSAT HIP 1 02 Jul 11:20:32 11:24:26 39° 61° (ENE) 11:28:25 437.405
NOAA 18 02 Jul 11:24:39 11:28:39 21° 323° (NW) 11:32:38 137.9125
AAUSAT CUBESAT 2 02 Jul 11:24:43 11:28:55 72° 290° (WNW) 11:33:04 437.432
PCSat 02 Jul 11:25:11 11:30:12 39° 237° (WSW) 11:35:11 145.827
HO-68 02 Jul 11:27:48 11:34:59 71° 299° (WNW) 11:42:09 435.675
CUTE-I 02 Jul 11:27:53 11:31:32 19° 322° (NW) 11:35:11 437.470
DUCHIFAT 1 02 Jul 11:29:37 11:33:35 42° 62° (ENE) 11:37:35 145.980
QB50P2 02 Jul 11:33:48 11:37:54 51° 64° (ENE) 11:42:02 145.880/145.840
POLYITAN 1 02 Jul 11:36:26 11:40:31 52° 64° (ENE) 11:44:40 437.675
GOMX 1 02 Jul 11:40:46 11:42:12 12° 321° (NW) 11:43:38 467.674
NOAA 15 02 Jul 11:42:06 11:44:52 15° 330° (NNW) 11:47:37 137.62
TIGRISAT 02 Jul 11:48:54 11:53:06 43° 262° (W) 11:57:26 435.000
Gurwin Techsat 1B 02 Jul 11:50:36 11:53:25 15° 31° (NNE) 11:56:15 435.225
YUBILEINY 02 Jul 11:51:00 11:57:21 23° 69° (ENE) 12:03:44 435.215
Cosmos 2491 02 Jul 11:51:45 12:00:29 68° 68° (ENE) 12:09:11 435.465 / 435.565
RS-15 02 Jul 11:54:22 12:04:08 33° 107° (ESE) 12:14:15 29.354- 29.394
UNISAT 6 02 Jul 11:55:44 11:59:51 37° 264° (W) 12:04:05 437.425
DANDE 02 Jul 12:02:19 12:08:28 26° 315° (NW) 12:13:40 436.750
COMPASS 1 02 Jul 12:03:32 12:07:22 34° 301° (WNW) 12:11:09 437.405
BEESAT 3 02 Jul 12:03:39 12:05:26 13° 243° (WSW) 12:07:12 437.485
CUBEBUG 2 02 Jul 12:07:09 12:11:31 44° 298° (WNW) 12:15:58 437.445
BUGSAT 1 02 Jul 12:07:10 12:11:01 46° 63° (ENE) 12:14:55 437.445
ISS 02 Jul 12:08:39 12:10:49 16° 184° (S) 12:12:58 145.825
AUBIESAT-1 02 Jul 12:09:23 12:13:15 81° 114° (ESE) 12:17:24 437.475
Cosmos 2504 02 Jul 12:11:38 12:14:50 13° 54° (NE) 12:18:05 435.465 / 435.565
ZACube-1 02 Jul 12:13:52 12:18:23 64° 293° (WNW) 12:22:56 437.345
ESTCUBE 1 02 Jul 12:14:47 12:17:44 17° 85° (E) 12:20:38 437.505/2401.250
Oscar 11 02 Jul 12:15:15 12:19:35 59° 293° (WNW) 12:23:52 145.826/435.025
DOVE 4 02 Jul 12:18:44 12:20:05 11° 322° (NW) 12:21:27 437.250
CANX-2 02 Jul 12:19:37 12:22:40 19° 312° (NW) 12:25:42 2200.000
FUNcube-1 02 Jul 12:29:01 12:33:26 53° 296° (WNW) 12:37:54 145.935
AIST 2 02 Jul 12:30:05 12:34:14 64° 217° (SW) 12:38:21 435.215
JAS-2 02 Jul 12:33:04 12:40:02 61° 62° (ENE) 12:46:13 435.910
SEEDS 02 Jul 12:34:31 12:37:35 19° 311° (NW) 12:40:37 437.485
DELFI C3 02 Jul 12:34:35 12:38:35 67° 292° (WNW) 12:42:33 145.870
Oscar 19 02 Jul 12:34:58 12:39:24 30° 51° (NE) 12:43:51 437.125/150
CUBEBUG 1 02 Jul 12:35:38 12:38:32 17° 86° (E) 12:41:26 437.445
Cubesat XI-IV 02 Jul 12:35:41 12:37:28 12° 338° (NNW) 12:39:16 437.490
ANTELSAT 02 Jul 12:36:39 12:39:57 20° 273° (W) 12:43:20 437.575/2403.000
AO-7 02 Jul 12:37:18 12:43:59 28° 18° (NNE) 12:50:41 29.400- 29.500
CUTE 1.7 + AOD 2 02 Jul 12:38:58 12:41:39 16° 315° (NW) 12:44:18 437.475
CINEMA 3 02 Jul 12:40:51 12:43:39 17° 315° (NW) 12:46:30 145.822/145.860
UWE-3 02 Jul 12:45:20 12:49:24 33° 303° (WNW) 12:53:32 435.000/436.395/437.385
NANOSAT C BR1 02 Jul 12:46:49 12:50:54 50° 259° (W) 12:55:03 145.865
HUMSAT D 02 Jul 12:48:08 12:52:30 89° 107° (ESE) 12:56:50 437.325/437.525
O/OREOS (USA 219) 02 Jul 12:50:56 12:55:07 38° 245° (WSW) 12:59:17 437.305
QB50P1 02 Jul 12:52:33 12:56:35 44° 260° (W) 13:00:41 145.935-145.965
M-CUBED/EXP-1 PRIME 02 Jul 12:52:55 12:56:30 43° 305° (NW) 13:00:22 437.505
VELOX 1 02 Jul 12:55:16 12:58:44 22° 90° (E) 13:02:11 145.980
POPSAT HIP 1 02 Jul 12:56:16 13:00:16 42° 262° (W) 13:04:19 437.405
AAUSAT CUBESAT 2 02 Jul 13:00:57 13:03:49 18° 312° (NW) 13:06:40 437.432
SPROUT 02 Jul 13:05:28 13:08:04 16° 84° (E) 13:10:41 437.525
DUCHIFAT 1 02 Jul 13:05:28 13:09:23 38° 263° (W) 13:13:21 145.980
NOAA 18 02 Jul 13:06:00 13:07:32 11° 347° (NNW) 13:09:03 137.9125
ITAMSAT 1 02 Jul 13:08:39 13:12:13 19° 38° (NE) 13:15:48 435.822/435.867
QB50P2 02 Jul 13:10:08 13:13:55 32° 265° (W) 13:17:46 145.880/145.840
PCSat 02 Jul 13:11:32 13:12:12 10° 259° (W) 13:12:53 145.827
UKube-1 02 Jul 13:12:19 13:15:37 21° 89° (E) 13:18:53 .
POLYITAN 1 02 Jul 13:12:48 13:16:34 31° 265° (W) 13:20:24 437.675
HO-68 02 Jul 13:15:47 13:21:50 31° 323° (NW) 13:27:54 435.675
Gurwin Techsat 1B 02 Jul 13:27:18 13:32:08 37° 54° (NE) 13:37:00 435.225
AISAT 02 Jul 13:36:21 13:40:35 44° 99° (E) 13:44:48 437.250
50 SAT 02 Jul 13:38:07 13:41:44 46° 100° (E) 13:45:17 437.505
DX 1 02 Jul 13:40:25 13:44:29 37° 97° (E) 13:48:32 434.975-435.025
COMPASS 1 02 Jul 13:40:56 13:41:52 11° 323° (NW) 13:42:48 437.405
BUGSAT 1 02 Jul 13:42:56 13:46:35 33° 264° (W) 13:50:16 437.445
AUBIESAT-1 02 Jul 13:44:22 13:47:29 24° 314° (NW) 13:50:45 437.475
CUBEBUG 2 02 Jul 13:44:49 13:47:13 14° 319° (NW) 13:49:39 437.445
ISS 02 Jul 13:45:37 13:46:20 11° 204° (SSW) 13:47:01 145.825
